TimePST,TemperatureF,Dew PointF,Humidity,Sea Level PressureIn,VisibilityMPH,Wind Direction,Wind SpeedMPH,Gust SpeedMPH,PrecipitationIn,Events,Conditions,WindDirDegrees,DateUTC
12:00 AM,46.8,41.4,81,30.14,-9999.0,SE,16.1,-,N/A,,Unknown,130,2013-11-25 08:00:00
1:00 AM,46.4,40.8,81,30.13,-9999.0,SE,18.4,-,N/A,,Unknown,130,2013-11-25 09:00:00
2:00 AM,45.3,40.5,83,30.13,-9999.0,SE,15.0,-,N/A,,Unknown,140,2013-11-25 10:00:00
3:00 AM,46.6,39.7,77,30.13,-9999.0,SE,19.6,-,N/A,,Unknown,140,2013-11-25 11:00:00
4:00 AM,47,40,69,30.11,,SE,21.9,,,,,140,2013-11-25 12:00:00
4:00 AM,47.3,39.9,76,30.11,-9999.0,SE,21.9,-,N/A,,Unknown,140,2013-11-25 12:00:00
5:00 AM,48.2,39.7,73,30.11,-9999.0,SE,21.9,-,N/A,,Unknown,130,2013-11-25 13:00:00
6:00 AM,48.9,38.7,68,30.12,-9999.0,SE,25.3,-,N/A,,Unknown,140,2013-11-25 14:00:00
7:00 AM,49.5,38.5,66,30.12,-9999.0,SE,28.8,-,N/A,,Unknown,140,2013-11-25 15:00:00
8:00 AM,49.3,38.5,66,30.12,-9999.0,SSE,32.2,39.1,N/A,,Unknown,150,2013-11-25 16:00:00
9:00 AM,49.1,38.5,67,30.12,-9999.0,SE,31.1,-,N/A,,Unknown,140,2013-11-25 17:00:00
10:00 AM,49,39,58,30.15,,SSE,31.1,,,,,150,2013-11-25 18:00:00
10:00 AM,49.1,38.7,67,30.15,-9999.0,SSE,31.1,-,N/A,,Unknown,150,2013-11-25 18:00:00
11:00 AM,49.6,37.9,64,30.12,-9999.0,SE,36.8,43.7,N/A,,Unknown,140,2013-11-25 19:00:00
12:00 PM,49.3,39.2,68,30.12,-9999.0,SSE,38.0,44.9,N/A,,Unknown,150,2013-11-25 20:00:00
1:00 PM,50.2,38.1,63,30.14,-9999.0,SSE,34.5,-,N/A,,Unknown,150,2013-11-25 21:00:00
2:00 PM,50.5,38.3,63,30.13,-9999.0,SE,34.5,41.4,N/A,,Unknown,140,2013-11-25 22:00:00
3:00 PM,49.3,40.1,71,30.14,-9999.0,SSE,26.5,-,N/A,,Unknown,150,2013-11-25 23:00:00
4:00 PM,49,39,60,30.14,,SSE,29.9,,,,,150,2013-11-26 00:00:00
4:00 PM,49.3,39.4,69,30.14,-9999.0,SSE,29.9,-,N/A,,Unknown,150,2013-11-26 00:00:00
5:00 PM,49.6,37.8,64,30.15,-9999.0,SSE,28.8,-,N/A,,Unknown,150,2013-11-26 01:00:00
6:00 PM,49.5,37.9,65,30.15,-9999.0,SE,31.1,-,N/A,,Unknown,140,2013-11-26 02:00:00
7:00 PM,49.5,37.2,63,30.15,-9999.0,SE,27.6,-,N/A,,Unknown,140,2013-11-26 03:00:00
8:00 PM,47.8,39.7,74,30.16,-9999.0,SSE,23.0,-,N/A,,Unknown,150,2013-11-26 04:00:00
9:00 PM,47.8,40.1,75,30.14,-9999.0,SSE,27.6,-,N/A,,Unknown,150,2013-11-26 05:00:00
10:00 PM,48,39,62,30.14,,SSE,29.9,,,,,150,2013-11-26 06:00:00
10:00 PM,48.2,39.0,71,30.14,-9999.0,SSE,29.9,-,N/A,,Unknown,150,2013-11-26 06:00:00
11:00 PM,48.4,38.3,68,30.14,-9999.0,SSE,29.9,36.8,N/A,,Unknown,160,2013-11-26 07:00:00